Flag for Philippines Weather past 2 weeks in Olongapo, Philippines

Now
77 °F

Passing clouds.


Feels Like: 79 °F
Forecast: 70 / 87 °F
Wind: No wind

Location: Subic Bay Weather Station

Current Time: Jan 29, 2015 at 10:54:51 PM

Latest Report: Jan 29, 2015 at 10:00 PM


Visibility: N/A

Pressure: 29.92 "Hg

Humidity: 79%

Dew point: 70 °F

Location of OlongapoLocation

Historic Weather in Olongapo — Graph

°F

Olongapo temperature yesterday

Maximum temperature yesterday: 90 °F (at 1:00 PM)
Minimum temperature yesterday: 72 °F (at 5:00 AM)
Average temperature yesterday: 79 °F

Past Weeks' High & Low Weather Summary

 TemperatureHumidityPressure
High90 °F (Jan 28, 1:00 PM)100% (Jan 17, 9:00 PM)30.04 "Hg (Jan 17, 9:00 PM)
Low68 °F (Jan 18, 11:00 PM)43% (Jan 27, 1:00 PM)29.80 "Hg (Jan 18, 2:00 PM)
Average78 °F68%29.91 "Hg
* Reported Jan 14 10:00 PM — Jan 29 10:00 PM, Olongapo, Weather by CustomWeather, © 2014

Note: Actual official high and low records may vary slightly from our data, if they occured in-between our weather recording intervals... More about our weather records

Advertising

Olongapo weather history for previous 24 hours

 ConditionsComfort  
Time TempWeatherWind HumidityBarometerVisibility
10:00 PM
Jan 29
77 °FPassing clouds.No wind79%29.92 "HgN/A
9:00 PM77 °FPassing clouds.No wind79%29.92 "HgN/A
8:00 PM79 °FPassing clouds.1 mph74%29.89 "HgN/A
7:00 PM81 °FPartly cloudy.No wind70%29.89 "HgN/A
6:00 PM81 °FPartly cloudy.2 mph74%29.86 "HgN/A
5:00 PM84 °FBroken clouds.No wind66%29.86 "HgN/A
4:00 PM86 °FPassing clouds.3 mph62%29.83 "HgN/A
3:00 PM82 °FPassing clouds.1 mph70%29.83 "HgN/A
2:00 PM86 °FScattered clouds.2 mph62%29.86 "HgN/A
1:00 PM88 °FScattered clouds.14 mph49%29.89 "HgN/A
12:00 PM88 °FScattered clouds.13 mph49%29.89 "HgN/A
11:00 AM86 °FScattered clouds.13 mph55%29.92 "HgN/A
10:00 AM84 °FScattered clouds.8 mph58%29.92 "HgN/A
9:00 AM81 °FPassing clouds.1 mph66%29.92 "HgN/A
8:00 AM79 °FPassing clouds.No wind74%29.92 "HgN/A
7:00 AM72 °FPassing clouds.No wind88%29.89 "HgN/A
6:00 AM72 °FPassing clouds.No wind88%29.89 "HgN/A
5:00 AM72 °FPassing clouds.No wind88%29.86 "HgN/A
2:00 AM73 °FPassing clouds.No wind89%29.86 "HgN/A
1:00 AM75 °FPassing clouds.No wind78%29.86 "HgN/A
12:00 AM75 °FPassing clouds.No wind83%29.89 "HgN/A
11:00 PM
Jan 28
77 °FPassing clouds.No wind79%29.89 "HgN/A
10:00 PM75 °FPassing clouds.No wind83%29.89 "HgN/A
Weather by CustomWeather, © 2014

See weather overviewHow to use our weather pages